Change the Weather History Date:

Thursday, October 18, 2012

  Actual Average Record
Temperature  
Mean Temperature 56 °F -  
Max Temperature 60 °F 53 °F 69 °F (2014)
Min Temperature 53 °F 42 °F 35 °F (1998)
Degree Days  
Heating Degree Days 8    
Growing Degree Days 6 (Base 50)    
Moisture  
Dew Point 51 °F    
Average Humidity 81    
Maximum Humidity 88    
Minimum Humidity 68    
Precipitation  
Precipitation 0.00 in - - ()
Sea Level Pressure  
Sea Level Pressure 29.62 in    
Wind  
Wind Speed 11 mph ()    
Max Wind Speed 16 mph    
Max Gust Speed -    
Visibility 6.2 miles    
Events Rain    
Averages and records for this station are not official NWS values.
T = Trace of Precipitation, MM = Missing Value Source: Averaged Metar Reports

Daily Weather History Graph

Daily Weather History Graph

Search for Another Location

Airport or City:

Trip Planner

Search our weather history database for the weather conditions in past years. The results will help you decide how hot, cold, wet, or windy it might be!

Date:

Astronomy

Oct. 18, 2012 Rise Set
Actual Time 7:26 AM BST 5:56 PM BST
Civil Twilight 6:52 AM BST 6:30 PM BST
Nautical Twilight 6:14 AM BST 7:09 PM BST
Astronomical Twilight 5:35 AM BST 7:48 PM BST
Moon 11:17 AM BST (10/18) 7:50 PM BST (10/18)
Length of Visible Light 11h 37m
Length of Day
10h 29m
Waxing Crescent, 12% of the Moon is Illuminated
Oct 18
Waxing Crescent
Oct 22
First Quarter
Oct 29
Full
Nov 7
Last Quarter
Nov 13
New

Hourly Weather History & Observations

Time (BST) Temp. Dew Point Humidity Pressure Visibility Wind Dir Wind Speed Gust Speed Precip Events Conditions
12:50 AM 53.6 °F 50.0 °F 88% 29.53 in 6.2 mi South 13.8 mph - N/A   Scattered Clouds
1:50 AM 53.6 °F 50.0 °F 88% 29.53 in 6.2 mi South 12.7 mph - N/A   Scattered Clouds
2:50 AM 53.6 °F 50.0 °F 88% 29.53 in 6.2 mi South 12.7 mph - N/A   Scattered Clouds
3:50 AM 53.6 °F 50.0 °F 88% 29.53 in 6.2 mi South 13.8 mph - N/A   Scattered Clouds
4:50 AM 55.4 °F 51.8 °F 88% 29.50 in 6.2 mi South 11.5 mph - N/A   Partly Cloudy
5:20 AM 55.4 °F 51.8 °F 88% 29.50 in 6.2 mi South 11.5 mph - N/A   Partly Cloudy
5:50 AM 55.4 °F 51.8 °F 88% 29.53 in 6.2 mi South 12.7 mph - N/A   Partly Cloudy
6:20 AM 55.4 °F 50.0 °F 82% 29.53 in 6.2 mi South 10.4 mph - N/A   Partly Cloudy
6:50 AM 55.4 °F 51.8 °F 88% 29.53 in 6.2 mi South 9.2 mph - N/A   Partly Cloudy
7:20 AM 55.4 °F 51.8 °F 88% 29.53 in 6.2 mi South 9.2 mph - N/A   Partly Cloudy
7:50 AM 55.4 °F 51.8 °F 88% 29.53 in 6.2 mi South 10.4 mph - N/A   Partly Cloudy
8:20 AM 55.4 °F 51.8 °F 88% 29.56 in 6.2 mi South 11.5 mph - N/A   Scattered Clouds
9:20 AM 55.4 °F 51.8 °F 88% 29.59 in 6.2 mi South 12.7 mph - N/A   Partly Cloudy
9:50 AM 57.2 °F 51.8 °F 82% 29.62 in 6.2 mi South 12.7 mph - N/A   Partly Cloudy
10:20 AM 59.0 °F 51.8 °F 77% 29.59 in 6.2 mi South 11.5 mph - N/A   Partly Cloudy
10:50 AM 57.2 °F 51.8 °F 82% 29.62 in 6.2 mi SSW 13.8 mph - N/A   Partly Cloudy
11:20 AM 59.0 °F 51.8 °F 77% 29.62 in 6.2 mi South 12.7 mph - N/A   Partly Cloudy
12:20 PM 60.8 °F 51.8 °F 72% 29.62 in 6.2 mi SSW 16.1 mph - N/A   Partly Cloudy
12:50 PM 59.0 °F 51.8 °F 77% 29.62 in 6.2 mi South 16.1 mph - N/A   Partly Cloudy
1:20 PM 59.0 °F 51.8 °F 77% 29.62 in 6.2 mi South 12.7 mph - N/A   Partly Cloudy
1:50 PM 60.8 °F 51.8 °F 72% 29.62 in 6.2 mi SSW 13.8 mph - N/A   Partly Cloudy
2:20 PM 59.0 °F 50.0 °F 72% 29.62 in 6.2 mi SSW 15.0 mph - N/A   Partly Cloudy
2:50 PM 60.8 °F 50.0 °F 68% 29.62 in 6.2 mi South 12.7 mph - N/A   Partly Cloudy
3:20 PM 60.8 °F 50.0 °F 68% 29.62 in 6.2 mi SSW 12.7 mph - N/A   Partly Cloudy
3:50 PM 60.8 °F 50.0 °F 68% 29.62 in 6.2 mi South 11.5 mph - N/A   Partly Cloudy
4:20 PM 59.0 °F 51.8 °F 77% 29.65 in 6.2 mi South 11.5 mph - N/A   Scattered Clouds
4:50 PM 59.0 °F 51.8 °F 77% 29.65 in 6.2 mi South 11.5 mph - N/A   Partly Cloudy
5:20 PM 59.0 °F 51.8 °F 77% 29.65 in 6.2 mi South 10.4 mph - N/A   Partly Cloudy
5:50 PM 59.0 °F 51.8 °F 77% 29.68 in 6.2 mi South 10.4 mph - N/A   Partly Cloudy
6:20 PM 57.2 °F 51.8 °F 82% 29.68 in 6.2 mi South 11.5 mph - N/A   Partly Cloudy
6:50 PM 59.0 °F 53.6 °F 82% 29.68 in 6.2 mi South 10.4 mph - N/A   Partly Cloudy
7:20 PM 57.2 °F 51.8 °F 82% 29.68 in 6.2 mi South 11.5 mph - N/A   Partly Cloudy
7:50 PM 57.2 °F 51.8 °F 82% 29.68 in 6.2 mi South 12.7 mph - N/A   Partly Cloudy
8:20 PM 57.2 °F 51.8 °F 82% 29.68 in 6.2 mi South 10.4 mph - N/A   Partly Cloudy
8:50 PM 57.2 °F 51.8 °F 82% 29.71 in 6.2 mi South 9.2 mph - N/A   Partly Cloudy
9:20 PM 57.2 °F 51.8 °F 82% 29.68 in 6.2 mi South 9.2 mph - N/A   Partly Cloudy
9:50 PM 57.2 °F 53.6 °F 88% 29.71 in - South 8.1 mph - N/A   Clear
10:20 PM 57.2 °F 51.8 °F 82% 29.71 in - South 5.8 mph - N/A   Clear
10:50 PM 55.4 °F 51.8 °F 88% 29.71 in 6.2 mi South 8.1 mph - N/A Rain Light Rain
11:50 PM 55.4 °F 51.8 °F 88% 29.74 in 6.2 mi South 6.9 mph - N/A Rain Light Rain